Theta_e
326 322 314 314 301 299 296 298 302 304 304 307 309 306 306 309 308 301 314 316 320 319 324 322 324 325 326 326 325 326 326 327 328 330 333 336 340 341 343 344 344 344 343 345 344 345 344 344 340
322 316 314 309 295 293 295 301 300 303 309 309 308 307 305 305 313 311 310 316 320 317 319 319 322 322 322 322 323 323 323 324 325 327 328 330 333 337 340 341 341 342 342 343 344 345 345 344 342
320 317 308 301 297 293 295 301 302 307 310 308 306 308 308 308 312 312 313 316 316 314 315 316 319 319 320 320 320 320 321 322 323 324 325 326 328 330 333 338 340 341 341 342 343 344 344 344 343
315 310 306 295 294 299 298 301 304 305 306 310 309 304 309 313 312 314 315 315 314 313 314 316 317 317 316 316 316 317 317 319 320 321 321 322 325 326 327 330 335 340 341 342 342 343 343 342 343
314 309 297 295 297 300 301 302 303 303 304 305 306 303 306 311 313 313 313 314 313 311 312 313 314 312 312 312 313 314 315 316 317 319 319 320 321 322 324 326 328 333 338 340 341 341 342 341 341
304 304 295 293 297 301 301 302 302 302 304 304 302 303 304 312 310 311 313 311 312 311 311 310 312 311 309 310 311 312 313 314 315 316 317 318 318 320 320 322 324 326 331 336 338 340 341 339 338
304 301 295 296 297 300 302 304 300 301 302 303 306 299 303 308 310 311 310 311 310 309 309 307 307 311 312 313 311 311 311 312 314 315 316 316 317 317 318 318 319 321 324 329 336 337 337 338 337
305 302 297 296 296 297 301 302 303 302 300 305 305 299 300 306 310 310 309 308 308 308 307 304 305 306 306 307 314 315 311 313 314 314 315 315 314 314 315 316 317 319 320 323 329 335 336 336 335
308 296 294 297 298 298 302 299 303 304 301 301 304 302 305 309 310 307 306 306 306 308 306 304 304 305 305 305 307 311 315 317 316 315 316 315 310 311 313 315 317 317 318 321 326 331 334 333 331
300 295 298 299 298 298 301 300 301 300 300 300 302 306 307 307 305 304 304 304 305 306 306 305 304 304 304 306 306 306 308 308 308 309 310 311 311 311 312 311 314 315 316 316 319 324 329 326 329
301 296 300 300 302 302 300 300 302 298 297 301 300 303 304 304 304 304 304 304 305 306 305 304 304 303 302 303 304 305 305 306 308 309 311 312 311 311 311 311 312 311 312 310 312 317 324 327 326
296 300 300 302 303 302 299 302 300 300 301 305 302 304 305 303 303 303 304 305 304 303 302 305 304 302 302 303 303 303 305 306 306 309 311 310 310 309 309 310 310 310 311 315 318 324 326 324 321
297 298 301 302 301 301 302 299 299 299 303 304 304 305 301 303 304 304 305 305 305 302 303 303 301 301 303 303 303 305 306 306 307 309 310 311 309 309 309 310 310 309 311 314 319 324 321 320 318
301 301 301 302 302 302 299 299 300 299 299 300 303 302 302 302 303 303 304 304 304 304 302 302 301 301 303 303 305 305 306 307 309 309 310 311 310 309 309 309 309 309 310 316 319 322 320 318 318
302 297 300 301 301 300 299 296 296 301 302 301 300 300 302 302 303 302 304 304 304 304 302 301 300 302 303 305 306 306 307 310 309 309 310 311 310 310 309 309 309 309 310 316 320 319 318 317 317
297 297 293 298 299 299 297 293 302 302 300 299 300 300 301 302 303 303 304 304 304 303 301 300 303 303 305 305 305 307 308 309 309 310 309 310 309 309 309 308 308 309 312 316 319 317 315 313 312
295 290 294 296 300 299 295 293 302 301 299 298 298 300 300 301 302 303 304 303 303 301 300 299 301 303 305 306 306 307 309 309 309 310 309 310 309 310 309 308 308 310 313 313 318 315 313 311 312
292 292 295 294 296 296 294 294 299 302 302 301 299 300 300 300 301 303 303 303 301 299 299 300 303 304 305 305 305 304 305 307 309 310 310 310 309 309 308 308 308 311 311 312 317 314 313 310 311
296 293 292 296 297 292 293 295 298 301 301 300 300 300 301 300 302 303 303 301 299 298 298 301 303 304 303 302 301 301 303 304 307 309 310 310 309 309 308 308 310 308 310 312 315 313 311 310 307
295 290 291 296 295 292 292 293 297 299 299 296 296 298 300 301 301 302 300 298 298 297 299 303 304 304 304 303 304 304 304 304 307 310 310 307 307 309 309 308 308 310 310 315 314 312 309 308 309
292 290 290 292 295 294 292 290 297 298 296 297 297 298 299 298 299 300 299 297 296 296 300 302 303 304 303 303 303 305 306 309 309 310 307 306 307 309 309 309 309 311 316 314 313 312 310 307 309
289 295 295 293 289 284 290 281 288 296 297 296 297 297 297 296 300 299 298 296 296 298 301 302 303 304 304 304 304 303 304 305 308 310 311 306 308 310 310 309 310 316 316 314 313 313 311 311 307
292 294 292 291 288 287 285 281 288 298 294 295 295 297 297 297 299 298 297 298 298 300 301 301 303 303 303 302 304 303 305 307 309 310 309 306 308 310 310 311 314 317 316 315 314 312 312 312 310
295 292 291 289 287 278 285 285 286 292 293 291 296 297 297 297 298 298 298 297 297 299 301 301 302 302 302 302 302 301 304 306 307 307 309 310 311 312 313 314 317 317 315 315 314 313 311 312 312
292 288 281 280 277 279 285 282 287 294 293 294 295 295 296 297 296 295 293 293 296 297 300 301 302 301 302 301 301 303 303 305 305 307 308 309 313 315 316 314 318 317 316 315 314 313 313 312 311
288 289 284 277 279 280 283 279 287 293 294 293 297 296 296 295 296 294 293 293 295 298 300 300 301 301 301 301 300 303 302 304 306 307 307 308 309 311 317 315 315 315 315 315 315 313 312 311 310
289 283 288 283 277 278 282 287 293 291 292 292 295 295 294 295 295 294 294 293 294 296 299 300 301 300 300 300 301 301 302 302 303 306 307 307 308 309 312 314 316 317 315 315 314 312 311 309 308
288 290 282 281 274 276 282 282 286 289 290 292 292 294 294 295 295 294 293 292 293 296 298 300 301 300 300 300 300 300 300 302 302 305 305 305 306 308 310 312 313 312 315 314 314 312 310 308 308
285 284 286 287 284 281 279 284 289 289 291 292 292 294 296 295 294 294 294 292 292 295 297 298 299 300 299 300 300 299 301 302 302 303 303 304 305 306 307 308 308 308 308 311 312 311 310 308 307
290 286 287 282 281 282 281 283 291 290 290 291 293 296 296 297 295 294 294 292 291 293 295 298 299 300 300 299 299 299 299 301 300 301 301 302 303 303 305 306 307 307 306 307 308 308 309 307 305
Wind_Speed
8 8 5 3 3 3 8 6 2 0 1 5 7 4 4 4 4 1 5 7 7 8 13 10 8 8 8 8 8 8 8 8 9 9 10 10 10 10 11 11 9 10 12 13 13 15 15 14 12
6 6 2 4 3 5 5 6 7 2 8 5 5 2 2 3 6 8 7 7 6 7 6 10 7 8 7 7 7 7 7 8 8 9 9 10 10 11 11 10 11 12 13 14 16 17 17 14 15
5 7 3 4 5 7 3 7 6 8 6 3 3 1 4 4 6 10 8 9 7 7 6 8 7 7 7 6 6 6 7 8 8 9 10 10 10 11 12 12 11 11 13 15 16 16 15 16 18
3 3 4 3 9 10 2 7 5 8 3 2 5 3 5 6 3 8 9 8 7 7 9 9 7 7 7 6 6 7 7 8 8 8 10 10 11 11 12 12 13 13 13 17 18 18 18 17 18
3 4 4 7 9 10 4 4 2 4 6 7 4 3 4 6 10 9 8 7 7 6 7 9 8 5 4 5 6 7 8 9 9 10 11 12 12 13 13 14 14 15 15 16 19 17 18 16 17
3 3 4 6 10 2 5 3 3 6 5 7 3 6 1 10 9 9 8 6 5 6 5 6 8 5 2 2 4 7 9 11 12 13 13 13 14 14 14 14 15 16 16 17 17 20 18 18 18
3 4 7 10 9 7 3 7 3 6 6 5 7 4 3 9 8 8 7 7 5 5 5 3 4 6 7 5 5 5 7 11 12 14 14 15 15 16 16 16 16 16 17 18 18 18 21 19 20
3 2 5 5 5 4 5 2 4 6 2 3 3 5 0 7 9 8 6 5 5 5 3 3 3 1 2 2 5 7 8 10 11 13 14 13 12 14 16 17 16 16 16 17 18 13 16 19 22
2 3 4 7 5 3 6 2 5 2 4 1 4 3 5 10 9 6 5 4 4 3 5 1 1 2 2 4 4 5 7 9 11 11 10 9 5 6 6 7 6 9 11 14 12 12 12 17 23
4 3 4 3 4 5 6 3 6 3 5 7 8 6 8 8 7 7 6 7 7 6 6 5 1 3 3 3 4 4 6 4 4 5 5 4 5 5 7 7 12 14 12 14 15 17 10 7 9
5 4 2 4 6 8 6 8 5 5 7 12 6 11 14 9 9 8 8 7 7 7 4 5 3 1 3 3 3 3 2 3 3 5 5 5 5 4 4 4 3 3 9 5 8 8 4 8 7
4 9 6 2 5 2 5 6 7 9 12 12 4 6 8 9 9 9 8 7 5 5 3 5 2 2 4 2 3 4 3 3 3 3 6 4 2 3 3 3 3 6 4 4 3 3 6 11 12
7 7 5 3 4 5 7 10 9 15 13 11 7 6 4 9 9 8 8 6 5 5 4 3 4 2 3 4 4 3 3 3 3 4 5 3 2 3 4 4 3 4 6 4 4 6 10 13 13
3 6 9 6 6 4 6 7 6 7 1 5 9 9 9 8 9 8 8 6 7 4 3 4 2 3 4 4 5 3 3 3 3 3 3 4 2 2 3 5 3 3 7 2 4 8 12 13 10
4 6 9 11 7 0 3 8 11 16 9 7 9 8 9 10 8 9 9 7 7 6 6 2 1 2 4 5 4 4 3 5 3 3 4 1 2 2 4 4 4 4 6 3 3 11 13 14 12
3 5 4 2 8 3 2 8 10 8 6 9 9 8 7 10 9 7 7 8 8 8 5 2 2 4 4 5 4 3 4 3 3 2 3 2 3 4 3 3 4 4 4 2 8 11 12 12 11
5 5 5 4 6 4 5 8 8 6 6 9 8 9 9 8 8 7 7 9 9 7 4 1 2 3 4 4 4 5 6 4 3 3 2 2 3 3 2 3 3 5 2 3 9 11 13 12 12
5 4 6 5 4 3 5 20 17 19 16 16 11 10 8 10 10 9 9 9 9 6 4 2 1 4 4 3 4 3 4 4 5 2 2 3 0 1 3 3 4 1 3 2 10 14 10 12 11
8 6 9 8 4 1 7 18 18 18 13 12 10 9 10 10 9 10 9 10 8 6 4 2 3 3 2 3 3 2 3 4 4 3 3 1 2 2 2 3 1 2 1 6 14 11 16 10 11
7 5 7 8 7 2 9 17 23 21 12 3 5 5 9 8 10 11 11 8 7 7 5 3 4 3 2 3 2 2 3 4 4 3 3 2 3 4 3 2 1 2 4 14 13 12 10 9 6
5 6 3 5 7 10 9 12 6 2 2 3 1 4 6 3 11 12 10 9 7 6 6 4 3 3 3 4 3 3 4 3 3 5 3 3 3 3 4 4 2 4 10 11 12 12 17 12 6
6 3 8 2 3 4 0 10 8 9 6 7 7 7 5 3 7 9 9 8 8 6 5 5 3 3 3 4 4 4 2 3 3 3 1 1 4 4 6 3 2 3 7 11 11 9 8 9 12
2 3 2 2 4 7 2 1 10 8 5 5 6 7 6 7 7 9 9 9 7 7 6 5 3 5 4 3 4 3 4 3 3 2 4 2 2 6 6 5 3 9 6 8 11 9 10 5 9
9 3 3 3 3 2 8 7 8 4 2 3 4 6 7 7 8 9 8 8 7 5 5 4 4 4 5 3 4 3 4 5 4 4 3 1 1 2 5 5 5 9 7 7 7 5 6 6 8
3 3 2 4 1 7 2 2 13 5 4 6 9 9 8 7 8 9 9 8 8 8 6 4 4 5 5 4 4 2 4 4 4 4 3 3 1 2 2 4 9 8 9 9 8 5 6 4 7
9 5 6 6 4 2 3 7 10 3 5 6 8 9 8 8 8 8 9 8 8 8 7 6 4 5 4 5 3 2 3 2 2 3 3 3 3 3 5 5 5 7 9 8 7 5 5 6 6
6 6 1 1 2 3 7 8 9 4 4 5 8 9 9 9 9 9 9 8 8 7 7 7 6 5 4 5 3 3 2 3 3 3 3 2 3 3 5 5 6 8 8 8 8 6 7 6 6
2 1 3 3 3 6 6 6 8 5 8 8 8 9 9 9 9 9 8 8 7 7 7 7 5 5 5 5 4 3 3 3 2 2 4 4 3 2 3 5 5 7 8 8 7 7 8 8 5
3 3 5 2 4 5 2 6 2 2 2 10 10 10 10 10 10 8 8 7 8 7 7 7 7 7 6 5 5 5 4 3 2 1 3 3 2 1 3 4 4 4 4 7 10 9 11 11 10
6 7 7 5 5 5 3 8 2 5 3 3 7 10 9 9 9 9 9 8 8 8 7 7 7 6 7 6 5 5 4 3 4 2 3 3 3 3 4 4 4 3 3 3 6 10 10 12 12
Wind_Direction
293 244 237 289 244 208 253 241 89 322 45 68 20 34 355 25 10 217 132 114 142 115 135 103 77 64 50 37 27 16 5 359 351 348 344 339 329 320 324 273 247 228 223 222 222 213 213 216 200
315 276 269 269 238 234 259 164 130 306 91 74 62 257 257 89 94 119 129 157 141 121 102 84 66 57 44 27 16 6 357 350 341 336 333 327 327 315 304 309 279 256 236 234 230 227 229 213 202
259 271 265 200 220 254 6 48 27 74 87 145 179 10 354 85 102 144 103 142 133 120 109 95 72 61 48 33 19 9 357 348 343 337 328 320 315 315 309 317 294 275 251 241 233 234 226 211 202
228 186 263 264 269 272 315 92 21 108 79 309 322 268 87 46 97 113 131 147 145 127 109 98 88 75 58 34 20 9 359 348 334 326 321 318 311 303 299 297 300 277 253 243 239 225 223 216 194
235 259 239 231 252 266 88 55 76 227 177 180 194 230 135 136 93 111 134 155 144 151 108 116 106 84 53 23 4 354 346 339 331 322 316 312 306 300 296 292 288 291 282 256 243 234 223 209 191
264 244 263 245 255 254 75 32 153 254 257 96 155 274 99 128 134 148 156 173 146 126 110 142 142 138 112 336 331 336 332 328 320 310 303 299 296 293 289 286 283 281 281 281 257 240 223 213 193
258 255 262 282 291 324 44 55 278 251 251 193 127 298 87 154 156 145 158 153 137 125 142 143 152 168 204 230 248 279 306 309 308 304 298 296 295 288 282 280 279 278 276 278 269 253 234 208 193
297 280 267 248 259 311 63 47 52 338 293 10 90 211 67 149 145 133 168 160 172 161 146 171 119 75 313 319 296 255 261 286 286 290 289 282 278 281 275 272 268 271 267 268 276 280 267 209 182
299 279 255 266 262 40 110 300 117 83 326 211 176 337 91 117 118 143 169 194 211 187 145 148 291 270 348 318 281 211 279 269 261 268 276 265 246 267 285 277 297 317 295 287 272 274 268 224 179
222 235 252 50 15 2 352 204 298 234 244 236 224 184 127 130 146 185 192 202 205 215 165 181 145 12 349 301 352 326 286 282 298 298 299 300 302 306 305 284 287 283 274 263 262 274 262 267 172
221 230 75 22 38 6 312 306 263 248 261 243 271 209 164 167 178 204 219 213 220 186 133 137 97 341 323 312 311 281 292 290 304 318 293 303 306 300 297 303 306 255 247 232 237 246 209 172 179
264 236 271 319 91 346 280 314 290 260 244 288 282 353 119 168 189 203 218 220 193 114 137 121 143 9 302 322 301 291 313 314 293 276 308 314 316 297 304 293 324 324 298 257 250 201 139 118 105
227 270 285 300 274 242 269 269 265 266 270 278 263 170 231 187 190 208 205 217 140 138 144 126 75 312 330 324 297 306 312 316 305 312 303 318 307 338 332 306 304 305 304 300 355 129 123 114 111
4 312 294 274 239 271 260 269 320 259 58 261 236 219 188 243 198 195 190 196 132 155 132 83 18 348 330 298 309 316 300 284 321 300 302 322 254 254 291 299 309 302 293 288 313 136 126 113 115
291 300 267 230 204 165 23 275 221 243 232 218 253 236 185 209 224 201 186 169 166 154 106 92 314 311 309 322 326 312 299 315 300 284 269 33 34 323 277 294 297 288 290 37 153 113 116 113 113
236 224 280 360 119 119 93 273 304 196 203 233 234 224 210 210 212 198 171 154 120 112 133 100 320 312 335 331 319 312 307 320 304 302 309 354 276 249 250 276 285 283 297 8 139 123 117 115 120
184 268 241 160 182 119 164 278 284 147 237 251 246 218 197 200 197 182 153 129 126 129 135 187 308 326 358 342 345 331 333 348 310 294 286 249 262 251 272 266 288 295 2 334 130 124 127 126 129
227 243 254 275 163 180 234 259 265 272 253 249 223 233 210 184 185 170 141 124 117 125 157 196 346 24 359 19 3 356 348 345 308 302 319 280 240 158 266 286 265 332 337 318 128 120 124 128 113
317 319 295 307 101 283 240 270 277 274 264 261 248 225 205 180 172 146 126 117 125 142 179 106 43 20 24 34 356 5 333 312 301 333 259 248 143 225 227 253 216 75 230 281 121 121 126 115 123
247 277 284 292 104 63 278 279 281 274 262 228 321 272 191 153 149 130 120 126 156 170 156 107 53 33 43 51 29 340 289 287 275 294 89 90 144 197 193 89 286 233 243 128 126 130 118 120 151
220 220 226 246 337 235 279 281 292 231 129 191 128 42 34 51 143 138 135 145 162 173 143 116 92 61 60 43 33 316 314 298 8 354 113 171 181 144 100 85 316 298 135 133 132 135 144 143 112
251 338 200 263 314 258 30 286 296 273 241 191 191 167 175 240 126 141 140 154 169 155 136 124 120 103 85 56 37 340 331 346 356 326 335 149 145 140 102 85 338 117 127 135 135 143 139 139 146
176 48 116 227 244 314 207 67 267 268 286 224 167 162 163 180 163 145 145 154 153 143 154 138 137 119 107 81 57 321 356 338 338 340 22 148 156 127 127 153 176 130 135 139 137 148 148 135 157
123 130 195 234 226 287 233 163 286 243 197 132 126 148 158 170 148 134 141 131 142 150 152 149 142 140 130 104 77 7 13 345 16 16 10 132 144 214 144 136 103 124 130 122 131 127 132 133 145
208 156 293 340 2 228 108 151 245 290 206 191 175 165 165 166 137 145 147 157 165 171 164 168 163 145 133 113 94 49 40 342 25 17 1 6 117 141 125 163 147 135 134 134 142 118 119 119 125
184 199 177 220 209 272 113 232 251 180 79 92 135 146 152 161 156 159 169 178 172 171 167 170 158 140 133 123 117 102 75 340 2 37 9 19 33 1 103 104 117 130 130 146 144 126 119 118 117
182 214 298 349 56 49 225 261 300 122 142 147 150 149 169 176 172 173 176 179 169 170 178 177 160 144 149 148 150 135 110 62 346 37 36 38 33 25 69 76 114 129 135 145 138 138 124 114 105
286 234 99 298 192 253 243 233 238 225 226 190 189 181 177 177 179 177 178 177 172 173 174 164 167 166 165 163 160 159 166 111 14 37 65 41 35 29 92 97 105 120 145 147 136 134 127 120 113
165 208 234 202 215 198 302 259 237 110 141 190 191 188 182 180 180 179 176 175 176 169 172 179 183 168 170 179 165 165 188 149 99 55 102 77 83 105 90 104 100 104 118 139 144 145 145 142 141
246 210 189 156 228 238 149 256 173 123 94 69 180 184 181 173 171 171 174 173 178 179 180 187 187 184 170 167 172 165 187 163 132 88 101 82 102 68 99 124 133 132 124 141 150 148 158 153 161